[[{"header":{"parameterUnit":"m.s-1","parameterCategory":1,"la1":30.2991,"la2":30.254,"lo1":-89.0895,"lo2":-89.0444,"dy":0.0017,"dx":0.0017,"nx":28,"ny":28,"refTime":"2025-01-23T03:00:00:Z","depth":0,"parameterNumber":2,"parameterNumberName":"U-component_of_WINDS"},"data":[0,0,0,0,0,0,0,0,0,0,0,0,0,0,0,0,0,0,0,0,0,0,0,0,0,0,0,0,0,0,0,0,0,0,0,0,0,0,0,0,0,0,0,0,0,0,0,0,0,0,0,0,0,0,0,0,0,0,4.3976,4.3977,0,4.4078,4.408,4.4081,4.408,4.4079,4.4077,4.4076,4.4183,4.4187,4.4191,0,0,0,0,0,0,0,0,0,0,0,0,0,4.3781,4.3785,4.3976,4.3977,4.3978,4.4078,4.408,4.4081,4.408,4.4079,4.4077,4.4075,4.4181,4.4186,4.4191,0,0,0,0,0,0,0,0,0,0,0,0,0,4.3873,4.3786,4.3975,4.399,4.3992,4.4078,4.408,4.4081,4.4081,4.4079,4.4076,4.4075,4.418,4.4186,4.4192,4.4271,0,0,4.4211,4.4213,0,0,0,0,0,0,0,0,4.3868,4.388,4.3986,4.3989,4.3992,4.4064,4.405,4.4145,4.4081,4.4047,4.4076,4.4074,4.4145,4.4154,4.4178,4.4276,4.428,4.4211,4.4215,4.4218,4.4219,0,0,0,0,0,0,0,4.3862,4.3876,4.4016,4.3988,4.3991,4.3992,4.4003,4.4068,4.4106,4.405,4.405,4.4062,4.4146,4.4172,4.418,4.4282,4.4211,4.4216,4.422,4.4223,4.4452,4.4454,0,0,0,0,0,0,4.3852,4.387,4.4013,4.4019,4.3923,4.3997,4.4009,4.4043,4.4106,4.4113,4.4064,4.4062,4.4162,4.4173,4.4184,4.4282,4.4218,4.4223,4.4227,4.445,4.4452,4.4455,0,0,0,0,0,0,4.3848,4.3865,4.4009,4.3945,4.3964,4.4003,4.4041,4.4046,4.4072,4.4116,4.4123,4.4083,4.4161,4.4175,4.425,4.4286,4.4226,4.4232,4.4447,4.445,4.4454,4.4478,0,0,0,0,0,0,4.3842,4.3863,4.3893,4.3946,4.3967,4.4072,4.4043,4.405,4.4082,4.4081,4.4136,4.4143,4.4161,4.424,4.4256,4.4293,4.4236,4.4444,4.4448,4.4453,4.4474,4.4482,4.4488,0,0,0,0,0,4.3835,4.3895,4.3894,4.3911,4.4005,4.4074,4.4086,4.4105,4.4085,4.4116,4.4145,4.4141,4.4279,4.4248,4.4265,4.4305,4.4442,4.4447,4.4452,4.4471,4.448,4.4488,0,0,0,0,0,0,4.3846,4.3902,4.3902,4.3981,4.4023,4.4074,4.4113,4.4114,4.4163,4.4159,4.418,4.4193,4.4268,4.4294,4.4258,4.4386,4.4358,4.4367,4.4366,4.4376,4.4383,4.4375,4.4242,0,0,0,0,0,4.3857,4.3908,4.3955,4.402,4.4041,4.4074,4.4104,4.4115,4.416,4.4178,4.4211,4.4255,4.4309,4.4343,4.4395,4.4477,4.4491,4.4514,4.4521,4.4526,4.4534,4.4582,4.4593,4.4473,4.4473,4.4473,0,0,4.3881,4.3919,4.395,4.4023,4.4057,4.4111,4.4088,4.4145,4.4186,4.4186,4.4259,4.4285,4.4336,4.4415,4.4452,4.4439,4.4571,4.4533,4.4538,4.4543,4.4589,4.46,4.461,4.4476,4.4476,4.4475,0,0,4.3953,4.3986,4.4045,4.4079,4.413,4.4152,4.4166,4.4217,4.4235,4.4308,4.431,4.4359,4.4449,4.4486,4.4516,4.4604,4.4603,4.462,4.4658,4.4704,4.4714,4.4722,4.4755,4.4766,4.4627,4.4627,4.4627,0,4.3977,4.4057,4.4075,4.4133,4.4166,4.4169,4.4229,4.4262,4.4327,4.4351,4.4335,4.4451,4.4485,4.4574,4.4595,4.4619,4.4637,4.4614,4.4711,4.472,4.4728,4.4759,4.4771,4.4629,4.4629,4.4629,4.4629,0,4.4085,4.414,4.4182,4.4245,4.4283,4.4342,4.437,4.4406,4.4414,4.4437,4.4512,4.4553,4.4614,4.4635,4.4643,4.4726,4.4717,4.4706,4.4679,4.4741,4.4771,4.4783,4.4632,4.4631,4.4631,4.463,0,0,4.4166,4.4239,4.4255,4.4284,4.4342,4.4385,4.4445,4.4504,4.4536,4.4581,4.4633,4.471,4.4701,4.4735,4.4747,4.4788,4.4857,4.4772,4.4774,4.4788,4.4953,4.4961,4.4975,4.4856,4.4858,4.486,4.4949,0,4.4245,4.4351,4.4369,4.4462,4.4515,4.4519,4.4571,4.4612,4.4636,4.4685,4.4711,4.4766,4.4749,4.477,4.481,4.484,4.489,4.4833,4.4906,4.4908,4.4894,4.499,4.5,4.5081,4.496,4.4962,4.4964,0,4.4352,4.44,4.4498,4.455,4.4573,4.4619,4.4676,4.4722,4.477,4.4784,4.4824,4.4831,4.4895,4.4864,4.4953,4.4914,4.4944,4.4964,4.4967,4.4976,4.4941,4.5003,4.5108,4.512,4.4982,4.4981,4.498,0,4.4404,4.4493,4.4564,4.4589,4.4651,4.4684,4.4711,4.4757,4.4792,4.4841,4.4865,4.4921,4.4952,4.4996,4.5019,4.4994,4.5107,4.5078,4.5122,4.5122,4.5146,4.5145,4.5259,4.5164,4.5164,4.5163,4.5163,0,4.4491,4.4551,4.4588,4.4632,4.47,4.4721,4.4788,4.4815,4.4856,4.4906,4.4912,4.4959,4.4986,4.5038,4.5056,4.5128,4.5141,4.5156,4.5161,4.5156,4.5155,4.5178,4.5173,4.5167,4.5166,4.5165,4.5165,0,4.4561,4.4588,4.4666,4.4718,4.4732,4.4781,4.4826,4.4869,4.4893,4.4956,4.4972,4.5009,4.507,4.5097,4.5172,4.5185,4.5267,4.5267,4.5251,4.5253,4.5296,4.5293,4.543,4.545,4.534,4.5341,4.5342,0,4.4616,4.4662,4.472,4.4754,4.4782,4.4836,4.4872,4.4894,4.4932,4.499,4.5027,4.5088,4.5138,4.5235,4.5269,4.5327,4.5329,4.5373,4.5338,4.5333,4.5332,4.5329,4.5335,4.538,4.5381,4.5382,4.5383,0,4.4711,4.4722,4.4773,4.483,4.4872,4.4918,4.4962,4.499,4.502,4.5061,4.5123,4.5162,4.5239,4.53,4.536,4.5389,4.5392,4.5393,4.5407,4.5404,4.5394,4.5402,4.527,4.539,4.539,4.5389,4.5389,4.5388,4.4776,4.4818,4.4866,4.4923,4.4959,4.5001,4.5044,4.5074,4.5126,4.519,4.52,4.5267,4.5315,4.5396,4.5427,4.548,4.547,4.5489,4.5494,4.5499,4.5503,4.5384,4.5491,4.5491,4.5491,4.5491,4.549,0,4.4873,4.4904,4.4956,4.5019,4.5064,4.5062,4.5111,4.515,4.5208,4.5252,4.5302,4.5374,4.5433,4.5472,4.5533,4.5568,4.5571,4.5583,4.5582,4.5589,4.5508,4.5491,4.558,4.558,4.558,4.558,4.558,4.558,4.4929,4.5001,4.5018,4.5108,4.5139,4.5204,4.5233,4.5272,4.5308,4.5388,4.5437,4.5462,4.5505,4.5569,4.5624,4.5634,4.5656,4.567,4.5679,4.5603,4.5594,4.5585,4.5569,4.5674,4.5674,4.5756,4.5757,4.5758]},{"header":{"parameterUnit":"m.s-1","parameterCategory":1,"la1":30.2991,"la2":30.254,"lo1":-89.0895,"lo2":-89.0444,"dy":0.0017,"dx":0.0017,"nx":28,"ny":28,"refTime":"2025-01-23T03:00:00:Z","depth":0,"parameterNumber":3,"parameterNumberName":"V-component_of_WINDS"},"data":[0,0,0,0,0,0,0,0,0,0,0,0,0,0,0,0,0,0,0,0,0,0,0,0,0,0,0,0,0,0,0,0,0,0,0,0,0,0,0,0,0,0,0,0,0,0,0,0,0,0,0,0,0,0,0,0,0,0,-2.8199,-2.8198,0,-2.8094,-2.8093,-2.8092,-2.8025,-2.8025,-2.8024,-2.8024,-2.7912,-2.7909,-2.7907,0,0,0,0,0,0,0,0,0,0,0,0,0,-2.8337,-2.8335,-2.8199,-2.8197,-2.8196,-2.8094,-2.8093,-2.8092,-2.8025,-2.8025,-2.8024,-2.8024,-2.7913,-2.791,-2.7907,0,0,0,0,0,0,0,0,0,0,0,0,0,-2.8259,-2.8334,-2.8199,-2.8151,-2.8145,-2.8095,-2.8093,-2.8091,-2.8025,-2.8025,-2.8024,-2.8023,-2.7914,-2.791,-2.7906,-2.7894,0,0,-2.7894,-2.7892,0,0,0,0,0,0,0,0,-2.8264,-2.8254,-2.8159,-2.8154,-2.8148,-2.8072,-2.8101,-2.8025,-2.8025,-2.8071,-2.8024,-2.8023,-2.7965,-2.7957,-2.7939,-2.7888,-2.7883,-2.7894,-2.7891,-2.789,-2.7889,0,0,0,0,0,0,0,-2.8269,-2.8258,-2.8157,-2.8158,-2.8151,-2.8133,-2.8122,-2.8086,-2.8022,-2.8067,-2.8062,-2.805,-2.7962,-2.7943,-2.7936,-2.7882,-2.7894,-2.789,-2.7888,-2.7886,-2.7817,-2.7818,0,0,0,0,0,0,-2.8283,-2.8263,-2.816,-2.8154,-2.8206,-2.8131,-2.8118,-2.8097,-2.8023,-2.8011,-2.8051,-2.8048,-2.795,-2.794,-2.7931,-2.7913,-2.789,-2.7886,-2.7884,-2.7817,-2.7817,-2.7818,0,0,0,0,0,0,-2.8286,-2.8274,-2.8165,-2.8207,-2.8192,-2.813,-2.8106,-2.8095,-2.8076,-2.8011,-2.7999,-2.8043,-2.7949,-2.7937,-2.7904,-2.7908,-2.7884,-2.7881,-2.7816,-2.7817,-2.7818,-2.7875,0,0,0,0,0,0,-2.829,-2.8276,-2.8271,-2.8208,-2.819,-2.814,-2.8106,-2.8094,-2.807,-2.8064,-2.8,-2.7989,-2.7947,-2.791,-2.79,-2.7902,-2.7878,-2.7815,-2.7816,-2.7817,-2.7872,-2.7877,-2.7882,0,0,0,0,0,-2.8295,-2.829,-2.8271,-2.8259,-2.8183,-2.8141,-2.813,-2.8084,-2.807,-2.8065,-2.8023,-2.7991,-2.7909,-2.7908,-2.7896,-2.7896,-2.7815,-2.7816,-2.7817,-2.787,-2.7876,-2.7882,0,0,0,0,0,0,-2.8353,-2.8281,-2.8259,-2.8233,-2.8194,-2.813,-2.8121,-2.8092,-2.8055,-2.8051,-2.7994,-2.798,-2.7953,-2.7921,-2.7921,-2.7881,-2.7858,-2.7857,-2.7903,-2.7908,-2.7913,-2.7921,-2.7874,0,0,0,0,0,-2.8363,-2.8336,-2.8274,-2.8257,-2.8238,-2.8184,-2.8163,-2.8132,-2.8088,-2.807,-2.8026,-2.7984,-2.7949,-2.7927,-2.789,-2.7868,-2.7853,-2.7862,-2.7867,-2.7871,-2.7871,-2.7857,-2.7861,-2.7822,-2.7822,-2.7822,0,0,-2.8382,-2.834,-2.8326,-2.8267,-2.8233,-2.8206,-2.817,-2.8142,-2.812,-2.8065,-2.8032,-2.7999,-2.7948,-2.7921,-2.7906,-2.7893,-2.7878,-2.7873,-2.7877,-2.7873,-2.7859,-2.7862,-2.7866,-2.7823,-2.7822,-2.7822,0,0,-2.8404,-2.8369,-2.8352,-2.8319,-2.8269,-2.8233,-2.8229,-2.817,-2.8146,-2.8113,-2.8071,-2.8045,-2.7985,-2.7951,-2.7926,-2.7938,-2.7906,-2.7927,-2.7952,-2.7939,-2.7942,-2.7945,-2.7949,-2.7952,-2.7927,-2.7927,-2.7927,0,-2.8434,-2.8393,-2.8346,-2.8322,-2.8297,-2.8249,-2.8231,-2.82,-2.814,-2.8124,-2.8111,-2.8037,-2.7999,-2.7963,-2.7967,-2.7948,-2.7941,-2.7934,-2.7946,-2.7948,-2.7949,-2.7953,-2.7955,-2.793,-2.793,-2.7929,-2.7929,0,-2.8433,-2.8405,-2.8396,-2.8342,-2.8317,-2.8296,-2.8245,-2.8225,-2.8196,-2.8161,-2.8128,-2.8082,-2.8036,-2.8025,-2.7995,-2.7986,-2.798,-2.7957,-2.7933,-2.7957,-2.7959,-2.796,-2.7934,-2.7933,-2.7932,-2.7932,0,0,-2.8486,-2.8409,-2.8406,-2.8382,-2.8324,-2.83,-2.8277,-2.8235,-2.8219,-2.8179,-2.8158,-2.811,-2.809,-2.8061,-2.8028,-2.8017,-2.803,-2.7995,-2.7993,-2.8004,-2.8017,-2.8034,-2.8037,-2.801,-2.801,-2.801,-2.8021,0,-2.8499,-2.8456,-2.8415,-2.8386,-2.836,-2.8315,-2.8294,-2.8256,-2.8224,-2.8196,-2.8159,-2.8126,-2.8101,-2.8084,-2.8072,-2.8031,-2.8032,-2.803,-2.7988,-2.7988,-2.8003,-2.8038,-2.8055,-2.8069,-2.8022,-2.8022,-2.8022,0,-2.8508,-2.8474,-2.8443,-2.839,-2.8377,-2.836,-2.8319,-2.8293,-2.8249,-2.8226,-2.8196,-2.8161,-2.8134,-2.8114,-2.8075,-2.8075,-2.8056,-2.8034,-2.8033,-2.8027,-2.8006,-2.8033,-2.8072,-2.8074,-2.8023,-2.8023,-2.8023,0,-2.855,-2.8496,-2.8471,-2.8452,-2.8389,-2.8378,-2.8351,-2.8306,-2.8284,-2.8247,-2.8232,-2.8193,-2.8171,-2.814,-2.8095,-2.8085,-2.8062,-2.8038,-2.8041,-2.8043,-2.8038,-2.8038,-2.8074,-2.8026,-2.8026,-2.8026,-2.8026,0,-2.8569,-2.8552,-2.849,-2.8475,-2.8455,-2.8407,-2.8389,-2.8357,-2.8319,-2.8296,-2.8254,-2.8233,-2.8176,-2.8148,-2.8113,-2.8087,-2.8077,-2.8057,-2.8048,-2.806,-2.8063,-2.8046,-2.8044,-2.8026,-2.8026,-2.8026,-2.8026,0,-2.8612,-2.857,-2.854,-2.8484,-2.847,-2.8457,-2.8409,-2.8392,-2.8358,-2.833,-2.832,-2.8266,-2.8232,-2.8185,-2.8135,-2.8111,-2.809,-2.8075,-2.8105,-2.81,-2.8106,-2.8106,-2.8132,-2.8133,-2.8085,-2.8085,-2.8086,0,-2.8627,-2.8614,-2.8557,-2.854,-2.8515,-2.8487,-2.8465,-2.8418,-2.8397,-2.8347,-2.8337,-2.83,-2.8267,-2.8214,-2.817,-2.8132,-2.8116,-2.8127,-2.8109,-2.8123,-2.8116,-2.8117,-2.8116,-2.8131,-2.8132,-2.8133,-2.8133,0,-2.8658,-2.8638,-2.8609,-2.8573,-2.8548,-2.8517,-2.8483,-2.8471,-2.8417,-2.8395,-2.8361,-2.8336,-2.8287,-2.825,-2.8207,-2.8178,-2.8146,-2.814,-2.8138,-2.8151,-2.8169,-2.816,-2.8117,-2.8139,-2.8138,-2.8138,-2.8138,-2.8137,-2.8687,-2.8673,-2.8632,-2.8601,-2.8572,-2.8542,-2.8525,-2.849,-2.8461,-2.8418,-2.8392,-2.8359,-2.8316,-2.8255,-2.8228,-2.8201,-2.8188,-2.8186,-2.8185,-2.8186,-2.819,-2.8175,-2.8192,-2.8192,-2.8192,-2.8192,-2.8192,0,-2.8715,-2.8687,-2.866,-2.8616,-2.8592,-2.8567,-2.8529,-2.851,-2.8483,-2.8446,-2.8417,-2.8377,-2.8343,-2.8297,-2.8258,-2.8245,-2.823,-2.8237,-2.8237,-2.8231,-2.8203,-2.8209,-2.825,-2.825,-2.825,-2.825,-2.825,-2.825,-2.8727,-2.8704,-2.868,-2.8641,-2.8613,-2.8582,-2.8562,-2.8535,-2.8506,-2.8465,-2.8437,-2.8408,-2.8368,-2.8327,-2.8294,-2.8281,-2.8269,-2.828,-2.8263,-2.8238,-2.8233,-2.8228,-2.8232,-2.8278,-2.8278,-2.8292,-2.8292,-2.8292]}]]